[[{"header":{"parameterUnit":"m.s-1","parameterCategory":1,"la1":30.2991,"la2":30.254,"lo1":-89.0895,"lo2":-89.0444,"dy":0.0017,"dx":0.0017,"nx":28,"ny":28,"refTime":"2024-03-28T03:00:00:Z","depth":0,"parameterNumber":2,"parameterNumberName":"U-component_of_WINDS"},"data":[0,0,0,0,0,0,0,0,0,0,0,0,0,0,0,0,0,0,0,0,0,0,0,0,0,0,0,0,0,0,0,0,0,0,0,0,0,0,0,0,0,0,0,0,0,0,0,0,0,0,0,0,0,0,0,0,0,0,-2.5462,-2.5462,0,-2.5465,-2.5465,-2.5465,-2.5437,-2.5436,-2.5435,-2.5434,-2.5438,-2.5439,-2.5439,0,0,0,0,0,0,0,0,0,0,0,0,0,-2.5435,-2.5435,-2.5462,-2.5462,-2.5462,-2.5465,-2.5465,-2.5465,-2.5437,-2.5436,-2.5435,-2.5434,-2.5438,-2.5438,-2.5439,0,0,0,0,0,0,0,0,0,0,0,0,0,-2.5443,-2.5436,-2.5462,-2.5448,-2.5447,-2.5465,-2.5465,-2.5465,-2.5437,-2.5436,-2.5435,-2.5434,-2.5437,-2.5438,-2.544,-2.5471,0,0,-2.5443,-2.5444,0,0,0,0,0,0,0,0,-2.5443,-2.5444,-2.545,-2.5449,-2.5448,-2.5449,-2.5456,-2.5467,-2.5437,-2.5441,-2.5434,-2.5433,-2.5443,-2.5443,-2.5446,-2.5471,-2.5471,-2.5443,-2.5444,-2.5445,-2.5445,0,0,0,0,0,0,0,-2.5442,-2.5444,-2.5463,-2.5451,-2.5449,-2.5443,-2.5443,-2.5458,-2.5448,-2.5441,-2.5438,-2.5439,-2.5442,-2.5445,-2.5446,-2.5471,-2.5443,-2.5445,-2.5445,-2.5446,-2.5522,-2.5523,0,0,0,0,0,0,-2.5443,-2.5443,-2.5463,-2.5463,-2.5442,-2.5444,-2.5444,-2.545,-2.5448,-2.5447,-2.544,-2.5438,-2.5444,-2.5445,-2.5446,-2.5482,-2.5445,-2.5446,-2.5447,-2.5521,-2.5523,-2.5524,0,0,0,0,0,0,-2.5443,-2.5445,-2.5463,-2.5453,-2.5455,-2.5446,-2.5453,-2.5451,-2.5454,-2.5448,-2.5446,-2.5445,-2.5443,-2.5445,-2.5465,-2.5482,-2.5446,-2.5448,-2.5519,-2.5521,-2.5523,-2.5555,0,0,0,0,0,0,-2.5442,-2.5445,-2.5456,-2.5453,-2.5455,-2.5481,-2.5454,-2.5452,-2.5456,-2.5453,-2.5452,-2.5451,-2.5442,-2.5463,-2.5466,-2.5483,-2.5449,-2.5518,-2.552,-2.5523,-2.5553,-2.5558,-2.5563,0,0,0,0,0,-2.5441,-2.5465,-2.5457,-2.5459,-2.5469,-2.5482,-2.5483,-2.5472,-2.5458,-2.5469,-2.5465,-2.5451,-2.548,-2.5466,-2.5469,-2.5486,-2.5517,-2.552,-2.5522,-2.555,-2.5557,-2.5563,0,0,0,0,0,0,-2.547,-2.5464,-2.5455,-2.5479,-2.5481,-2.5477,-2.5491,-2.548,-2.5486,-2.5483,-2.547,-2.547,-2.5493,-2.5492,-2.5476,-2.5517,-2.5496,-2.55,-2.5516,-2.5522,-2.5527,-2.5527,-2.545,0,0,0,0,0,-2.5479,-2.549,-2.5485,-2.5506,-2.5508,-2.55,-2.5505,-2.5497,-2.5498,-2.5499,-2.5497,-2.55,-2.551,-2.5516,-2.5525,-2.5553,-2.5553,-2.5567,-2.5572,-2.5576,-2.5579,-2.5595,-2.5601,-2.5533,-2.5533,-2.5533,0,0,-2.5498,-2.5496,-2.5504,-2.5512,-2.5513,-2.5525,-2.55,-2.5514,-2.5523,-2.5501,-2.552,-2.5519,-2.5522,-2.5546,-2.5557,-2.5546,-2.5598,-2.558,-2.5584,-2.5584,-2.5598,-2.5605,-2.561,-2.5535,-2.5535,-2.5535,0,0,-2.5538,-2.5538,-2.5556,-2.5558,-2.5559,-2.5554,-2.5559,-2.5557,-2.5555,-2.5574,-2.5559,-2.557,-2.5587,-2.5589,-2.5593,-2.5637,-2.5624,-2.564,-2.5666,-2.5681,-2.5686,-2.5691,-2.5706,-2.5712,-2.5643,-2.5643,-2.5644,0,-2.5561,-2.5578,-2.5567,-2.5581,-2.5586,-2.5568,-2.5586,-2.5589,-2.5593,-2.5597,-2.5585,-2.5607,-2.5608,-2.5633,-2.5644,-2.5647,-2.5652,-2.5639,-2.5686,-2.5691,-2.5695,-2.571,-2.5715,-2.5645,-2.5645,-2.5645,-2.5645,0,-2.5606,-2.5618,-2.5633,-2.5638,-2.5644,-2.5661,-2.5653,-2.5661,-2.5653,-2.5649,-2.5669,-2.567,-2.5678,-2.5684,-2.5676,-2.5708,-2.5702,-2.5689,-2.5667,-2.5704,-2.5717,-2.5722,-2.5648,-2.5647,-2.5647,-2.5646,0,0,-2.5662,-2.5662,-2.5668,-2.567,-2.5672,-2.5681,-2.5698,-2.5707,-2.5714,-2.5719,-2.5732,-2.5748,-2.5736,-2.5741,-2.5733,-2.5747,-2.5781,-2.5732,-2.5732,-2.574,-2.5817,-2.5826,-2.5832,-2.5774,-2.5775,-2.5775,-2.5816,0,-2.5701,-2.5728,-2.572,-2.5748,-2.5759,-2.5743,-2.5758,-2.5761,-2.5759,-2.5769,-2.5766,-2.5778,-2.5761,-2.5764,-2.5777,-2.5774,-2.5796,-2.5771,-2.5786,-2.5787,-2.5784,-2.5839,-2.5849,-2.5887,-2.5822,-2.5823,-2.5823,0,-2.5749,-2.5756,-2.5785,-2.5785,-2.579,-2.5803,-2.5811,-2.5821,-2.5824,-2.5822,-2.5828,-2.5818,-2.5835,-2.5815,-2.5839,-2.5822,-2.5828,-2.5828,-2.5829,-2.5829,-2.5806,-2.584,-2.5899,-2.5905,-2.5831,-2.5831,-2.583,0,-2.5786,-2.5803,-2.5822,-2.5825,-2.5827,-2.5836,-2.5837,-2.584,-2.5846,-2.5854,-2.5858,-2.5867,-2.5872,-2.588,-2.5874,-2.586,-2.5898,-2.5878,-2.5897,-2.5897,-2.5904,-2.5903,-2.5964,-2.591,-2.591,-2.591,-2.591,0,-2.583,-2.5848,-2.5839,-2.5851,-2.5872,-2.5863,-2.5883,-2.5883,-2.5886,-2.5898,-2.5886,-2.5897,-2.5889,-2.59,-2.5895,-2.5916,-2.5918,-2.5917,-2.5915,-2.5917,-2.5917,-2.592,-2.5916,-2.5911,-2.5911,-2.5911,-2.5911,0,-2.5874,-2.5869,-2.5889,-2.589,-2.589,-2.5905,-2.5906,-2.5917,-2.5915,-2.593,-2.5934,-2.593,-2.5942,-2.5937,-2.5951,-2.5948,-2.5974,-2.5969,-2.5972,-2.5971,-2.599,-2.5988,-2.6054,-2.6062,-2.6003,-2.6004,-2.6004,0,-2.5901,-2.5915,-2.5917,-2.5924,-2.5926,-2.5938,-2.5944,-2.5937,-2.5944,-2.595,-2.5961,-2.5973,-2.5982,-2.6004,-2.6002,-2.6013,-2.6008,-2.603,-2.6009,-2.6011,-2.6007,-2.6006,-2.6008,-2.6034,-2.6035,-2.6035,-2.6036,0,-2.595,-2.5948,-2.5957,-2.5966,-2.5974,-2.5981,-2.5987,-2.5994,-2.5986,-2.5996,-2.6008,-2.6016,-2.603,-2.6042,-2.6052,-2.6054,-2.6044,-2.6043,-2.6047,-2.6049,-2.605,-2.6049,-2.5983,-2.6041,-2.604,-2.604,-2.604,-2.6039,-2.5987,-2.5998,-2.6002,-2.6013,-2.6017,-2.6023,-2.6034,-2.6033,-2.6044,-2.6054,-2.605,-2.6065,-2.607,-2.6082,-2.6086,-2.6098,-2.6089,-2.6096,-2.6098,-2.6099,-2.6102,-2.6049,-2.61,-2.6099,-2.6099,-2.6099,-2.6099,0,-2.6035,-2.6036,-2.6047,-2.6056,-2.6065,-2.6055,-2.6062,-2.607,-2.6083,-2.6089,-2.6098,-2.6114,-2.6126,-2.6126,-2.6137,-2.6147,-2.6143,-2.615,-2.6149,-2.615,-2.6109,-2.6103,-2.6154,-2.6154,-2.6153,-2.6153,-2.6153,-2.6153,-2.6061,-2.608,-2.6078,-2.6099,-2.6101,-2.6116,-2.612,-2.6126,-2.613,-2.6148,-2.6158,-2.6158,-2.6162,-2.6174,-2.6185,-2.6184,-2.6189,-2.6198,-2.6196,-2.6158,-2.6152,-2.6147,-2.6142,-2.6199,-2.6199,-2.6236,-2.6236,-2.6236]},{"header":{"parameterUnit":"m.s-1","parameterCategory":1,"la1":30.2991,"la2":30.254,"lo1":-89.0895,"lo2":-89.0444,"dy":0.0017,"dx":0.0017,"nx":28,"ny":28,"refTime":"2024-03-28T03:00:00:Z","depth":0,"parameterNumber":3,"parameterNumberName":"V-component_of_WINDS"},"data":[0,0,0,0,0,0,0,0,0,0,0,0,0,0,0,0,0,0,0,0,0,0,0,0,0,0,0,0,0,0,0,0,0,0,0,0,0,0,0,0,0,0,0,0,0,0,0,0,0,0,0,0,0,0,0,0,0,0,4.4715,4.4715,0,4.4741,4.4742,4.4742,4.4758,4.4758,4.4758,4.4758,4.4783,4.4783,4.4784,0,0,0,0,0,0,0,0,0,0,0,0,0,4.4678,4.4679,4.4715,4.4716,4.4716,4.4741,4.4742,4.4742,4.4758,4.4758,4.4758,4.4758,4.4783,4.4783,4.4784,0,0,0,0,0,0,0,0,0,0,0,0,0,4.4698,4.4679,4.4715,4.4727,4.4728,4.4741,4.4742,4.4742,4.4758,4.4758,4.4758,4.4758,4.4782,4.4783,4.4784,4.4787,0,0,4.4787,4.4787,0,0,0,0,0,0,0,0,4.4697,4.4699,4.4725,4.4726,4.4728,4.4747,4.4738,4.4757,4.4758,4.4747,4.4758,4.4759,4.4771,4.4772,4.4777,4.4788,4.4789,4.4787,4.4787,4.4788,4.4788,0,0,0,0,0,0,0,4.4695,4.4698,4.4725,4.4725,4.4727,4.4731,4.4734,4.4741,4.4757,4.4748,4.4749,4.4752,4.4771,4.4776,4.4778,4.4789,4.4787,4.4788,4.4788,4.4788,4.4805,4.4805,0,0,0,0,0,0,4.4692,4.4697,4.4725,4.4726,4.4712,4.4731,4.4735,4.474,4.4757,4.476,4.4752,4.4753,4.4775,4.4777,4.4779,4.4784,4.4788,4.4789,4.4789,4.4805,4.4805,4.4805,0,0,0,0,0,0,4.4692,4.4695,4.4724,4.4712,4.4716,4.4732,4.4738,4.4741,4.4746,4.4761,4.4763,4.4754,4.4775,4.4777,4.4785,4.4785,4.4789,4.479,4.4805,4.4805,4.4805,4.4793,0,0,0,0,0,0,4.469,4.4694,4.4696,4.4712,4.4717,4.473,4.4738,4.4741,4.4747,4.4749,4.4763,4.4766,4.4775,4.4784,4.4786,4.4786,4.479,4.4805,4.4805,4.4805,4.4794,4.4793,4.4792,0,0,0,0,0,4.4689,4.469,4.4696,4.4699,4.4719,4.473,4.4732,4.4744,4.4747,4.4749,4.4759,4.4765,4.4784,4.4784,4.4787,4.4787,4.4805,4.4805,4.4805,4.4794,4.4793,4.4792,0,0,0,0,0,0,4.4672,4.4693,4.4699,4.4705,4.4716,4.4733,4.4735,4.4742,4.4751,4.4752,4.4765,4.4768,4.4775,4.4782,4.4781,4.4791,4.4796,4.4796,4.4786,4.4785,4.4785,4.4783,4.4791,0,0,0,0,0,4.467,4.4678,4.4695,4.4699,4.4704,4.4719,4.4724,4.4732,4.4743,4.4747,4.4757,4.4767,4.4776,4.4781,4.4789,4.4795,4.4799,4.4796,4.4796,4.4795,4.4795,4.4799,4.4799,4.4804,4.4804,4.4804,0,0,4.4663,4.4676,4.468,4.4696,4.4705,4.4713,4.4722,4.4729,4.4735,4.4748,4.4756,4.4764,4.4776,4.4783,4.4787,4.4789,4.4794,4.4794,4.4794,4.4794,4.4799,4.4798,4.4798,4.4804,4.4804,4.4804,0,0,4.4657,4.4667,4.4672,4.4682,4.4696,4.4706,4.4707,4.4723,4.4729,4.4738,4.4748,4.4755,4.4769,4.4777,4.4784,4.4782,4.4789,4.4784,4.4779,4.4784,4.4783,4.4783,4.4783,4.4783,4.4784,4.4784,4.4784,0,4.4647,4.466,4.4674,4.4681,4.4688,4.4702,4.4707,4.4715,4.4731,4.4736,4.4739,4.4758,4.4766,4.4776,4.4776,4.478,4.4782,4.4783,4.4782,4.4782,4.4782,4.4782,4.4782,4.4784,4.4784,4.4784,4.4784,0,4.4648,4.4657,4.466,4.4676,4.4684,4.469,4.4704,4.471,4.4718,4.4728,4.4737,4.4748,4.476,4.4763,4.477,4.4774,4.4775,4.478,4.4785,4.4781,4.4781,4.4781,4.4783,4.4783,4.4783,4.4783,0,0,4.4631,4.4656,4.4657,4.4665,4.4682,4.4689,4.4697,4.4709,4.4714,4.4725,4.4732,4.4744,4.4749,4.4756,4.4764,4.4768,4.4767,4.4773,4.4773,4.4772,4.4773,4.4769,4.4769,4.4772,4.4772,4.4772,4.4772,0,4.4627,4.4642,4.4655,4.4665,4.4673,4.4687,4.4693,4.4705,4.4714,4.4722,4.4732,4.4741,4.4747,4.4752,4.4756,4.4766,4.4768,4.4766,4.4778,4.4778,4.4775,4.4769,4.4765,4.4765,4.4772,4.4772,4.4772,0,4.4624,4.4636,4.4647,4.4665,4.4669,4.4675,4.4688,4.4696,4.471,4.4716,4.4725,4.4734,4.4743,4.4747,4.4759,4.4758,4.4763,4.4769,4.4769,4.4771,4.4775,4.4771,4.4765,4.4765,4.4773,4.4773,4.4773,0,4.4611,4.463,4.4639,4.4646,4.4667,4.4671,4.468,4.4693,4.47,4.4712,4.4716,4.4728,4.4735,4.4743,4.4755,4.4757,4.4766,4.4771,4.4772,4.4772,4.4773,4.4773,4.4768,4.4776,4.4776,4.4776,4.4776,0,4.4606,4.4612,4.4634,4.464,4.4648,4.4663,4.467,4.468,4.4692,4.47,4.4712,4.4718,4.4734,4.4743,4.4752,4.4761,4.4764,4.4769,4.4772,4.4768,4.4768,4.4772,4.4773,4.4776,4.4776,4.4776,4.4776,0,4.4592,4.4607,4.4619,4.4638,4.4643,4.4648,4.4665,4.4671,4.4682,4.4692,4.4695,4.4711,4.4722,4.4735,4.475,4.4757,4.4765,4.4768,4.4761,4.4762,4.4763,4.4763,4.4761,4.4761,4.4769,4.4768,4.4768,0,4.4588,4.4594,4.4614,4.4621,4.463,4.464,4.4648,4.4664,4.4671,4.4688,4.4692,4.4704,4.4715,4.4732,4.4745,4.4757,4.4761,4.4759,4.4763,4.4759,4.4761,4.4761,4.4762,4.4758,4.4758,4.4758,4.4758,0,4.4579,4.4587,4.4598,4.4612,4.4622,4.4634,4.4646,4.465,4.4668,4.4676,4.4688,4.4697,4.4713,4.4725,4.4739,4.4747,4.4756,4.4757,4.4758,4.4755,4.475,4.4753,4.4759,4.4757,4.4757,4.4757,4.4757,4.4757,4.457,4.4576,4.4593,4.4605,4.4616,4.4628,4.4635,4.4647,4.4658,4.4674,4.4682,4.4694,4.4708,4.4728,4.4736,4.4746,4.4748,4.475,4.475,4.475,4.4749,4.4749,4.4748,4.4748,4.4748,4.4748,4.4748,0,4.4562,4.4574,4.4586,4.4603,4.4613,4.4622,4.4636,4.4644,4.4655,4.4668,4.4679,4.4693,4.4705,4.472,4.4733,4.4738,4.4742,4.4741,4.4741,4.4743,4.4746,4.4744,4.4737,4.4737,4.4737,4.4737,4.4737,4.4737,4.456,4.4571,4.458,4.4598,4.4609,4.4622,4.463,4.464,4.4651,4.4667,4.4678,4.4688,4.4701,4.4716,4.4728,4.4731,4.4736,4.4734,4.4739,4.4741,4.4742,4.4743,4.4741,4.4734,4.4734,4.4735,4.4735,4.4735]}]]